Location: Clarion
(42.7316°N, 93.7330°W)
Time: 01:58:22
(UTC+00:00)

CZ-2C R/B - Pass Details

Date: 22 April 2026
Orbit: 702 x 901 km, 98.2° (Epoch: 20 May)

Event Time Altitude Azimuth Distance (km) Brightness Sun altitude
Rises 06:14:05 0° 13° (NNE) 3,295 7.3 -35.0°
Reaches altitude 10° 06:16:22 10° 13° (NNE) 2,390 6.3 -35.0°
Enters shadow 06:19:31 38° 14° (NNE) 1,239 4.4 -35.0°
